EW0532 Weather Reports


Display with metric or nautical units.
time (UTC)temp
F
wind
direction
speed
MPH
gust
MPH
rain 1hr
in
rain 24hr
in
rain mn
in
humidity
%
barometer
mb
20260510174507 72 82 2.0 7.0 0.00 0.28 0.00 60 1013.2
20260510174006 72 115 1.0 8.0 0.00 0.28 0.00 61 1013.1
20260510173506 72 184 2.0 8.0 0.00 0.28 0.00 62 1013.2
20260510173013 71 211 2.0 6.0 0.00 0.28 0.00 65 1013.2
20260510172506 71 185 2.0 6.0 0.00 0.28 0.00 64 1013.3
20260510172010 70 198 1.0 6.0 0.00 0.28 0.00 69 1013.3
20260510171518 70 183 2.0 8.0 0.00 0.28 0.00 66 1013.2
20260510171003 70 322 3.0 8.0 0.00 0.28 0.00 66 1013.2
20260510170507 69 187 1.0 6.0 0.00 0.28 0.00 67 1013.3
20260510170016 69 186 2.0 6.0 0.00 0.28 0.00 69 1013.4
20260510165507 69 249 0.0 6.0 0.00 0.28 0.00 71 1013.5
20260510165003 68 156 1.0 8.0 0.00 0.28 0.00 72 1013.5
20260510164513 68 132 3.0 8.0 0.00 0.28 0.00 68 1013.6
20260510164006 68 217 2.0 8.0 0.00 0.28 0.00 70 1013.6
20260510163504 68 112 1.0 8.0 0.00 0.28 0.00 72 1013.6
20260510163010 68 159 3.0 8.0 0.00 0.28 0.00 71 1013.6
20260510162506 67 172 0.0 6.0 0.00 0.28 0.00 72 1013.7
20260510162009 67 185 3.0 6.0 0.00 0.28 0.00 71 1013.7
20260510161512 67 159 2.0 9.0 0.00 0.28 0.00 72 1013.6
20260510161008 67 180 2.0 9.0 0.00 0.28 0.00 72 1013.7
20260510160507 67 188 1.0 5.0 0.00 0.28 0.00 75 1013.6
20260510160011 66 215 0.0 7.0 0.00 0.28 0.00 75 1013.6
20260510155507 66 334 1.0 7.0 0.00 0.28 0.00 73 1013.5
20260510155007 65 183 1.0 7.0 0.00 0.28 0.00 78 1013.4
20260510154520 65 146 3.0 7.0 0.00 0.28 0.00 76 1013.6
20260510154004 64 146 2.0 8.0 0.00 0.28 0.00 78 1013.6
20260510153503 64 167 2.0 8.0 0.00 0.28 0.00 77 1013.7
20260510153010 64 164 3.0 8.0 0.00 0.28 0.00 77 1013.8
20260510152504 63 130 1.0 7.0 0.00 0.28 0.00 79 1013.7
20260510152008 63 153 1.0 7.0 0.00 0.28 0.00 79 1013.7
20260510151514 63 132 1.0 7.0 0.00 0.28 0.00 80 1013.6
20260510151006 62 143 3.0 7.0 0.00 0.28 0.00 81 1013.6
20260510150506 62 148 1.0 5.0 0.00 0.28 0.00 82 1013.7
20260510150016 61 86 1.0 6.0 0.00 0.28 0.00 82 1013.8
20260510145507 61 171 1.0 6.0 0.00 0.28 0.00 83 1013.9
20260510145012 60 159 1.0 7.0 0.00 0.28 0.00 83 1014.0
20260510144525 60 157 3.0 7.0 0.00 0.28 0.00 84 1014.0
20260510144007 60 144 1.0 8.0 0.00 0.28 0.00 84 1013.8
20260510143516 60 153 0.0 8.0 0.00 0.28 0.00 85 1013.7
20260510143031 60 146 3.0 8.0 0.00 0.28 0.00 84 1013.9
20260510142506 59 142 0.0 5.0 0.00 0.28 0.00 87 1013.8
20260510142004 59 143 1.0 5.0 0.00 0.28 0.00 86 1013.7
20260510141514 59 148 1.0 4.0 0.00 0.28 0.00 85 1013.9
20260510141006 59 169 0.0 5.0 0.00 0.28 0.00 87 1013.8
20260510140509 58 171 1.0 7.0 0.00 0.28 0.00 87 1013.7
20260510140019 58 155 1.0 10.0 0.00 0.28 0.00 86 1013.7
20260510135506 58 138 2.0 10.0 0.00 0.28 0.00 86 1013.7
20260510135006 58 155 1.0 6.0 0.00 0.28 0.00 87 1013.7
20260510134522 58 139 1.0 6.0 0.00 0.28 0.00 88 1013.7
20260510134008 57 186 0.0 3.0 0.00 0.28 0.00 89 1013.7
20260510133506 57 186 0.0 5.0 0.00 0.28 0.00 90 1013.7
20260510133034 56 186 1.0 5.0 0.00 0.28 0.00 91 1013.7
20260510132514 56 209 1.0 4.0 0.00 0.28 0.00 93 1013.7
20260510132013 55 159 0.0 4.0 0.00 0.28 0.00 92 1013.6
20260510131515 55 159 0.0 6.0 0.00 0.28 0.00 92 1013.6
20260510131009 55 159 3.0 6.0 0.00 0.28 0.00 92 1013.5
20260510130507 55 159 1.0 5.0 0.00 0.28 0.00 93 1013.4
20260510130014 55 150 0.0 5.0 0.00 0.28 0.00 93 1013.4
20260510125503 55 186 1.0 3.0 0.00 0.28 0.00 94 1013.4
20260510125004 54 186 0.0 2.0 0.00 0.28 0.00 94 1013.3
20260510124506 54 186 0.0 1.0 0.00 0.28 0.00 94 1013.2
20260510124003 54 186 0.0 0.0 0.00 0.28 0.00 94 1013.3
20260510123503 54 186 0.0 1.0 0.00 0.28 0.00 94 1013.4
20260510123004 54 186 0.0 1.0 0.00 0.28 0.00 94 1013.3
20260510122503 54 186 0.0 1.0 0.00 0.28 0.00 94 1013.2
20260510122002 53 186 0.0 0.0 0.00 0.28 0.00 95 1013.1
20260510121506 53 186 0.0 0.0 0.00 0.28 0.00 94 1013.1
20260510121006 53 186 0.0 0.0 0.00 0.28 0.00 94 1013.1
20260510120504 53 186 0.0 0.0 0.00 0.28 0.00 94 1013.1
20260510120004 53 186 0.0 0.0 0.00 0.28 0.00 94 1012.9
20260510115503 53 186 0.0 0.0 0.00 0.28 0.00 94 1012.8
20260510115005 53 186 0.0 0.0 0.00 0.28 0.00 95 1012.7
20260510114504 53 186 0.0 0.0 0.00 0.28 0.00 95 1012.7
20260510114004 53 186 0.0 1.0 0.00 0.28 0.00 95 1012.8
20260510113503 53 186 0.0 2.0 0.00 0.28 0.00 94 1012.8
20260510113004 53 186 0.0 2.0 0.00 0.28 0.00 94 1012.8
20260510112503 53 186 0.0 0.0 0.00 0.28 0.00 94 1012.9
20260510112004 52 186 0.0 0.0 0.00 0.28 0.00 95 1012.7
20260510111507 52 186 0.0 1.0 0.00 0.28 0.00 95 1012.4
20260510111003 52 186 0.0 1.0 0.00 0.28 0.00 95 1012.3
20260510110505 52 186 0.0 1.0 0.00 0.28 0.00 95 1012.4
20260510110008 52 186 0.0 0.0 0.00 0.28 0.00 94 1012.4
20260510105504 52 186 0.0 0.0 0.00 0.28 0.00 94 1012.3
20260510105003 52 186 0.0 0.0 0.00 0.28 0.00 94 1012.1
20260510104508 52 186 0.0 0.0 0.00 0.28 0.00 94 1012.1
20260510104005 52 186 0.0 1.0 0.00 0.28 0.00 94 1012.1
20260510103508 52 186 0.0 2.0 0.00 0.28 0.00 94 1012.1
20260510103005 52 186 0.0 2.0 0.00 0.28 0.00 94 1012.2
20260510102507 52 186 0.0 0.0 0.00 0.28 0.00 94 1012.3
20260510102002 52 186 0.0 1.0 0.00 0.28 0.00 94 1012.2
20260510101503 52 186 0.0 1.0 0.00 0.28 0.00 94 1012.2
20260510101003 52 186 0.0 0.0 0.00 0.28 0.00 94 1012.2
20260510100503 52 186 0.0 1.0 0.00 0.28 0.00 94 1012.3
20260510100009 52 186 0.0 3.0 0.00 0.28 0.00 94 1012.3
20260510095503 52 186 0.0 3.0 0.00 0.28 0.00 94 1012.2
20260510095005 52 272 0.0 1.0 0.00 0.28 0.00 94 1012.4
20260510094512 52 272 0.0 1.0 0.00 0.28 0.00 94 1012.3
20260510094006 52 273 0.0 1.0 0.00 0.28 0.00 94 1012.1
20260510093503 52 273 0.0 2.0 0.00 0.28 0.00 94 1012.1
20260510093016 52 273 0.0 2.0 0.00 0.28 0.00 94 1012.2
20260510092506 52 273 0.0 2.0 0.00 0.28 0.00 94 1012.3
20260510092002 52 276 0.0 2.0 0.00 0.28 0.00 94 1012.3
20260510091512 52 290 0.0 2.0 0.00 0.28 0.00 94 1012.4
20260510091006 52 290 0.0 1.0 0.00 0.28 0.00 94 1012.4
20260510090504 52 291 0.0 0.0 0.00 0.28 0.00 94 1012.5
20260510090006 52 291 0.0 0.0 0.00 0.28 0.00 94 1012.5
20260510085503 52 291 0.0 0.0 0.00 0.28 0.00 94 1012.5
20260510085003 52 291 0.0 0.0 0.00 0.28 0.00 94 1012.5
20260510084503 52 291 0.0 0.0 0.00 0.28 0.00 94 1012.5
20260510084004 52 291 0.0 0.0 0.00 0.28 0.00 94 1012.5
20260510083504 52 291 0.0 0.0 0.00 0.28 0.00 94 1012.6
20260510083017 52 291 0.0 0.0 0.00 0.28 0.00 94 1012.5
20260510082507 52 291 0.0 1.0 0.00 0.28 0.00 94 1012.5
20260510082007 52 291 0.0 2.0 0.00 0.28 0.00 94 1012.5
20260510081520 52 291 0.0 3.0 0.00 0.28 0.00 94 1012.4
20260510081009 52 291 0.0 3.0 0.00 0.28 0.00 94 1012.5
20260510080506 52 289 0.0 2.0 0.00 0.28 0.00 94 1012.4
20260510080018 52 291 0.0 4.0 0.00 0.28 0.00 94 1012.3
20260510075506 52 291 0.0 4.0 0.00 0.28 0.00 94 1012.3
20260510075003 52 159 1.0 4.0 0.00 0.28 0.00 94 1012.0
20260510074507 52 156 0.0 0.0 0.00 0.28 0.00 94 1011.6
20260510074005 53 156 0.0 0.0 0.00 0.28 0.00 94 1011.6
20260510073503 52 156 0.0 0.0 0.00 0.28 0.00 94 1011.6
20260510073013 53 156 0.0 0.0 0.00 0.28 0.00 94 1011.6
20260510072507 53 156 0.0 0.0 0.00 0.28 0.00 94 1011.6
20260510072007 53 156 0.0 0.0 0.00 0.28 0.00 94 1011.6
20260510071507 53 156 0.0 0.0 0.00 0.28 0.00 94 1011.6
20260510071006 53 156 0.0 0.0 0.00 0.28 0.00 94 1011.7
20260510070508 53 156 0.0 0.0 0.00 0.28 0.00 94 1011.8
20260510070023 53 156 0.0 0.0 0.00 0.28 0.00 94 1011.8
20260510065503 53 156 0.0 0.0 0.00 0.28 0.00 94 1011.8
20260510065011 53 156 0.0 0.0 0.00 0.28 0.00 94 1011.8
20260510064523 53 156 0.0 0.0 0.00 0.28 0.00 94 1011.8
20260510064004 53 156 0.0 0.0 0.00 0.28 0.00 94 1011.8
20260510063507 53 156 0.0 0.0 0.00 0.28 0.00 94 1011.9
20260510063010 53 156 0.0 0.0 0.00 0.28 0.00 94 1011.9
20260510062507 53 156 0.0 1.0 0.00 0.28 0.00 94 1011.9
20260510062007 53 156 0.0 2.0 0.00 0.28 0.00 94 1011.8
20260510061514 53 156 0.0 2.0 0.00 0.28 0.00 94 1011.8
20260510061007 53 156 0.0 1.0 0.00 0.28 0.00 94 1011.7
20260510060510 53 156 0.0 0.0 0.00 0.28 0.00 94 1011.7
20260510060019 53 156 0.0 0.0 0.00 0.28 0.00 94 1011.7
20260510055508 53 156 0.0 0.0 0.00 0.28 0.00 94 1011.7
20260510055008 53 156 0.0 0.0 0.00 0.28 0.00 94 1011.6
20260510054514 53 156 0.0 1.0 0.00 0.28 0.00 94 1011.6
20260510054009 53 156 0.0 1.0 0.00 0.28 0.00 94 1011.6
20260510053514 53 156 0.0 0.0 0.00 0.28 0.00 94 1011.6
20260510053029 53 156 0.0 0.0 0.00 0.28 0.00 94 1011.6
20260510052506 53 156 0.0 1.0 0.00 0.28 0.00 94 1011.7
20260510052014 53 156 0.0 1.0 0.00 0.28 0.00 94 1011.7
20260510051512 53 156 0.0 0.0 0.00 0.28 0.00 94 1011.7
20260510051006 53 156 0.0 0.0 0.00 0.28 0.00 94 1011.8
20260510050508 53 156 0.0 0.0 0.00 0.28 0.00 94 1011.8
20260510050018 53 156 0.0 0.0 0.00 0.28 0.00 94 1011.9
20260510045509 53 156 0.0 0.0 0.00 0.28 0.00 94 1011.8
20260510045005 53 156 0.0 0.0 0.00 0.28 0.00 94 1011.9
20260510044520 53 156 0.0 0.0 0.00 0.28 0.00 94 1011.9
20260510044006 53 156 0.0 0.0 0.00 0.28 0.00 94 1011.8
20260510043510 53 156 0.0 0.0 0.00 0.28 0.00 94 1011.9
20260510043020 53 156 0.0 0.0 0.00 0.28 0.00 94 1011.9
20260510042508 53 156 0.0 0.0 0.00 0.28 0.00 94 1011.8
20260510042012 53 156 0.0 0.0 0.00 0.28 0.00 94 1011.9
20260510041515 53 156 0.0 0.0 0.00 0.28 0.00 94 1011.8
20260510041006 53 156 0.0 0.0 0.00 0.28 0.00 94 1011.8
20260510040509 53 156 0.0 0.0 0.00 0.28 0.00 94 1011.8
20260510040016 53 156 0.0 0.0 0.00 0.28 0.00 94 1011.8
20260510035505 53 156 0.0 0.0 0.00 0.28 0.28 94 1011.8
20260510035002 53 156 0.0 0.0 0.00 0.28 0.28 94 1011.7
20260510034503 52 156 0.0 0.0 0.00 0.28 0.28 94 1011.7
20260510034003 52 156 0.0 0.0 0.00 0.28 0.28 94 1011.7
20260510033502 52 156 0.0 0.0 0.00 0.28 0.28 94 1011.7
20260510033004 52 156 0.0 0.0 0.00 0.28 0.28 94 1011.7
20260510032502 52 156 0.0 0.0 0.00 0.28 0.28 94 1011.5
20260510032006 52 156 0.0 0.0 0.00 0.28 0.28 94 1011.4
20260510031509 51 156 0.0 0.0 0.00 0.28 0.28 94 1011.5
20260510031003 51 156 0.0 0.0 0.00 0.28 0.28 94 1011.5
20260510030509 51 156 0.0 0.0 0.00 0.28 0.28 94 1011.6
20260510030009 51 156 0.0 1.0 0.01 0.28 0.28 94 1011.5
20260510025502 51 156 0.0 1.0 0.01 0.28 0.28 94 1011.6
20260510025006 51 156 0.0 0.0 0.01 0.28 0.28 93 1011.6
20260510024518 51 156 0.0 0.0 0.01 0.28 0.28 93 1011.7
20260510024006 51 156 0.0 0.0 0.01 0.28 0.28 93 1011.7
20260510023505 51 156 0.0 0.0 0.01 0.28 0.28 93 1011.7
20260510023003 51 156 0.0 0.0 0.01 0.28 0.28 93 1011.8
20260510022503 51 156 0.0 0.0 0.01 0.28 0.28 93 1011.8
20260510022002 51 156 0.0 0.0 0.01 0.28 0.28 93 1011.7
20260510021511 51 156 0.0 1.0 0.01 0.28 0.28 93 1011.8
20260510021005 51 156 0.0 1.0 0.01 0.28 0.28 93 1011.7
20260510020504 51 156 0.0 0.0 0.01 0.28 0.28 93 1011.7
20260510020008 51 156 0.0 0.0 0.00 0.27 0.27 93 1011.6
20260510015507 51 156 0.0 0.0 0.00 0.27 0.27 93 1011.7
20260510015010 51 156 0.0 0.0 0.00 0.27 0.27 92 1011.7
20260510014507 51 156 0.0 0.0 0.00 0.27 0.27 93 1011.6
20260510014004 51 156 0.0 0.0 0.00 0.27 0.27 93 1011.6
20260510013507 51 156 0.0 0.0 0.00 0.27 0.27 93 1011.7
20260510013004 51 156 0.0 0.0 0.00 0.27 0.27 93 1011.7
20260510012503 51 156 0.0 0.0 0.00 0.27 0.27 92 1011.6
20260510012010 51 156 0.0 0.0 0.00 0.27 0.27 93 1011.6
20260510011505 51 156 0.0 0.0 0.00 0.27 0.27 92 1011.5
20260510011004 52 156 0.0 0.0 0.00 0.27 0.27 92 1011.3
20260510010504 52 156 0.0 0.0 0.00 0.27 0.27 92 1011.1
20260510010007 52 156 0.0 0.0 0.00 0.27 0.27 92 1011.0
20260510005506 52 156 0.0 0.0 0.00 0.27 0.27 92 1011.1
20260510005004 52 156 0.0 0.0 0.00 0.27 0.27 92 1011.1
20260510004512 52 156 0.0 0.0 0.00 0.27 0.27 92 1011.0
20260510004009 52 156 0.0 0.0 0.00 0.27 0.27 92 1010.9
20260510003504 52 156 0.0 0.0 0.00 0.27 0.27 91 1010.9
20260510003012 53 156 0.0 0.0 0.00 0.27 0.27 92 1011.0
20260510002508 53 156 0.0 0.0 0.00 0.27 0.27 92 1011.0
20260510002007 53 156 0.0 0.0 0.00 0.27 0.27 92 1011.1
20260510001510 53 156 0.0 0.0 0.00 0.27 0.27 92 1011.1
20260510001007 53 156 0.0 0.0 0.00 0.27 0.27 91 1011.0
20260510000507 53 156 0.0 0.0 0.00 0.27 0.27 91 1011.0
20260510000010 54 156 0.0 0.0 0.00 0.27 0.27 91 1010.9
20260509235503 54 156 0.0 0.0 0.00 0.27 0.27 91 1010.8
20260509235006 54 156 0.0 0.0 0.00 0.27 0.27 91 1010.8
20260509234529 54 156 0.0 0.0 0.00 0.27 0.27 91 1010.8
20260509234003 54 156 0.0 0.0 0.00 0.27 0.27 91 1010.7
20260509233506 54 156 0.0 0.0 0.00 0.27 0.27 92 1010.7
20260509233020 55 156 0.0 1.0 0.00 0.27 0.27 92 1010.8
20260509232503 55 156 0.0 1.0 0.00 0.27 0.27 92 1010.7
20260509232007 55 156 0.0 3.0 0.00 0.27 0.27 92 1010.8
20260509231519 55 156 0.0 5.0 0.00 0.27 0.27 92 1010.6
20260509231008 55 156 0.0 5.0 0.00 0.27 0.27 92 1010.4
20260509230504 55 161 1.0 5.0 0.00 0.27 0.27 92 1010.5
20260509230018 55 145 1.0 5.0 0.00 0.27 0.27 92 1010.7
20260509225511 55 153 0.0 5.0 0.00 0.27 0.27 92 1011.1
20260509225019 55 153 1.0 5.0 0.00 0.27 0.27 92 1011.2
20260509224513 55 153 0.0 2.0 0.00 0.27 0.27 92 1011.2
20260509224003 55 153 0.0 3.0 0.01 0.27 0.27 92 1011.2
20260509223503 55 153 0.0 5.0 0.03 0.27 0.27 92 1011.2
20260509223009 55 153 0.0 5.0 0.05 0.27 0.27 92 1011.1
20260509222506 55 150 0.0 5.0 0.06 0.27 0.27 92 1011.1
20260509222006 55 150 0.0 5.0 0.08 0.27 0.27 92 1011.0
20260509221521 55 154 0.0 6.0 0.10 0.27 0.27 92 1011.0
20260509221007 55 148 1.0 6.0 0.12 0.27 0.27 92 1011.1
20260509220509 55 155 1.0 4.0 0.13 0.27 0.27 92 1011.0
20260509220023 55 146 0.0 4.0 0.14 0.27 0.27 91 1011.2
20260509215503 55 343 0.0 3.0 0.15 0.27 0.27 91 1011.5
20260509215008 55 329 0.0 3.0 0.19 0.27 0.27 91 1011.5
20260509214522 55 329 0.0 1.0 0.19 0.27 0.27 91 1011.3
20260509214012 55 329 0.0 0.0 0.19 0.26 0.26 91 1011.3
20260509213504 55 329 0.0 1.0 0.17 0.24 0.24 91 1011.5
20260509213019 55 329 0.0 1.0 0.15 0.22 0.22 91 1011.5
20260509212507 55 329 0.0 0.0 0.14 0.21 0.21 91 1011.4
20260509212006 55 329 0.0 1.0 0.13 0.19 0.19 90 1011.4
20260509211514 55 329 0.0 1.0 0.11 0.17 0.17 90 1011.4
20260509210506 55 329 0.0 1.0 0.09 0.14 0.14 90 1011.4
20260509210014 55 329 0.0 1.0 0.08 0.13 0.13 89 1011.1
20260509205507 55 329 0.0 0.0 0.07 0.12 0.12 89 1011.4
20260509205009 55 329 0.0 0.0 0.04 0.08 0.08 89 1011.4
20260509204525 55 329 0.0 0.0 0.04 0.08 0.08 89 1011.4
20260509204006 55 329 0.0 0.0 0.03 0.07 0.07 88 1011.5
20260509203513 56 329 0.0 0.0 0.03 0.07 0.07 88 1011.6
20260509203027 55 329 0.0 0.0 0.03 0.07 0.07 88 1011.4
20260509202503 55 329 0.0 2.0 0.03 0.07 0.07 86 1011.5
20260509202016 55 329 0.0 4.0 0.02 0.06 0.06 86 1011.4
20260509201528 56 329 0.0 5.0 0.02 0.06 0.06 86 1011.5
20260509201008 56 344 0.0 6.0 0.02 0.06 0.06 85 1011.8
20260509200507 56 345 1.0 6.0 0.01 0.05 0.05 84 1011.8
20260509200018 57 329 1.0 5.0 0.01 0.05 0.05 84 1011.5
20260509195511 57 325 0.0 5.0 0.01 0.05 0.05 83 1011.5
20260509195012 57 321 2.0 5.0 0.00 0.04 0.04 82 1011.8
20260509194518 57 309 0.0 10.0 0.00 0.04 0.04 83 1011.6
20260509194009 57 309 1.0 10.0 0.00 0.04 0.04 82 1011.7
20260509193513 57 315 2.0 10.0 0.00 0.04 0.04 81 1011.6
20260509193021 58 332 1.0 8.0 0.00 0.04 0.04 79 1011.5
20260509192507 58 327 1.0 8.0 0.01 0.04 0.04 82 1011.6
20260509192013 58 313 1.0 8.0 0.01 0.04 0.04 83 1011.4
20260509191528 57 336 0.0 3.0 0.01 0.04 0.04 85 1011.4
20260509191011 57 336 0.0 3.0 0.01 0.04 0.04 84 1011.4
20260509190509 57 336 0.0 3.0 0.01 0.04 0.04 84 1011.6
20260509190030 57 324 1.0 3.0 0.03 0.04 0.04 84 1011.4
20260509185509 57 318 0.0 6.0 0.04 0.04 0.04 84 1011.5
20260509185008 57 318 0.0 9.0 0.04 0.04 0.04 82 1011.5
20260509184524 57 330 1.0 9.0 0.04 0.04 0.04 82 1011.4
20260509184010 57 9 4.0 9.0 0.04 0.04 0.04 81 1011.4
20260509183510 57 48 2.0 8.0 0.04 0.04 0.04 81 1011.7
20260509183023 58 336 2.0 9.0 0.04 0.04 0.04 81 1011.9
20260509182510 58 322 4.0 9.0 0.03 0.03 0.03 79 1012.0
20260509182007 58 325 3.0 8.0 0.03 0.03 0.03 80 1012.1
20260509181522 59 352 2.0 9.0 0.03 0.03 0.03 79 1012.1
20260509181007 59 9 2.0 9.0 0.03 0.03 0.03 75 1012.3
20260509180514 60 346 1.0 10.0 0.03 0.03 0.03 74 1012.3
20260509180021 60 15 2.0 10.0 0.01 0.01 0.01 72 1012.2
20260509175508 61 13 1.0 4.0 0.00 0.00 0.00 71 1011.9
20260509175014 62 238 1.0 5.0 0.00 0.00 0.00 68 1011.6